Weather History for K4O4 - August, 2013

Change the Weather History Date:

Saturday, August 10, 2013

  Actual Average (KDEQ) Record (KDEQ)
Temperature  
Mean Temperature 86 °F 82 °F  
Max Temperature 98 °F 94 °F 114 °F (1936)
Min Temperature 73 °F 69 °F 55 °F (1989)
Degree Days  
Heating Degree Days 0 0  
Month to date heating degree days 0  
Since 1 June heating degree days 0  
Since 1 July heating degree days 0  
Cooling Degree Days 20 17  
Month to date cooling degree days 166  
Year to date cooling degree days 1258  
Since 1 June cooling degree days 1041  
Growing Degree Days 36 (Base 50)    
Moisture  
Dew Point 71 °F    
Average Humidity 66    
Maximum Humidity 94    
Minimum Humidity 39    
Precipitation  
Precipitation 0.00 in 0.07 in 0.93 in (1991)
Month to date precipitation 0.71  
Year to date precipitation 30.13  
Snow  
Snow 0.00 in - - ()
Month to date snowfall  
Since 1 June snowfall  
Since 1 July snowfall  
Snow Depth -    
Sea Level Pressure  
Sea Level Pressure 30.01 in    
Wind  
Wind Speed 3 mph (NE)    
Max Wind Speed 8 mph    
Max Gust Speed -    
Visibility 9 miles    
Events      
T = Trace of Precipitation, MM = Missing Value Source: NWS Daily Summary

Daily Weather History Graph

Daily Weather History Graph

Search for Another Location

Airport or City:

Trip Planner

Search our weather history database for the weather conditions in past years. The results will help you decide how hot, cold, wet, or windy it might be!

Date:

Astronomy

Aug. 10, 2013 Rise Set
Actual Time 6:37 AM CDT 8:11 PM CDT
Civil Twilight 6:10 AM CDT 8:37 PM CDT
Nautical Twilight 5:38 AM CDT 9:09 PM CDT
Astronomical Twilight 5:05 AM CDT 9:43 PM CDT
Moon 10:11 AM CDT (8/10) 10:08 PM CDT (8/10)
Length of Visible Light 14h 26m
Length of Day
13h 33m
Waxing Crescent, 14% of the Moon is Illuminated
Aug 10
Waxing Crescent
Aug 14
First Quarter
Aug 20
Full
Aug 28
Last Quarter
Sep 5
New

Hourly Weather History & Observations

Time (CDT) Temp. Heat Index Dew Point Humidity Pressure Visibility Wind Dir Wind Speed Gust Speed Precip Events Conditions
12:15 AM 78.8 °F - 71.6 °F 78% 29.98 in 7.0 mi East 5.8 mph - N/A   Clear
12:35 AM 78.8 °F - 71.6 °F 78% 29.98 in 7.0 mi East 6.9 mph - N/A   Clear
12:55 AM 78.8 °F - 71.6 °F 78% 29.98 in 7.0 mi East 5.8 mph - N/A   Clear
1:15 AM 78.8 °F - 69.8 °F 74% 29.98 in 10.0 mi East 5.8 mph - N/A   Clear
1:35 AM 78.8 °F - 69.8 °F 74% 29.98 in 10.0 mi ESE 5.8 mph - N/A   Clear
1:55 AM 78.8 °F - 69.8 °F 74% 29.99 in 10.0 mi ESE 3.5 mph - N/A   Clear
2:15 AM 77.0 °F - 69.8 °F 78% 29.99 in 10.0 mi Calm Calm - N/A   Clear
2:35 AM 77.0 °F - 69.8 °F 78% 29.98 in 10.0 mi Calm Calm - N/A   Clear
2:55 AM 75.2 °F - 69.8 °F 83% 29.99 in 7.0 mi Calm Calm - N/A   Clear
3:15 AM 73.4 °F - 69.8 °F 88% 29.99 in 7.0 mi Calm Calm - N/A   Clear
3:35 AM 73.4 °F - 69.8 °F 88% 29.99 in 10.0 mi ENE 4.6 mph - N/A   Clear
3:55 AM 73.4 °F - 69.8 °F 88% 29.99 in 7.0 mi Calm Calm - N/A   Clear
4:15 AM 73.4 °F - 69.8 °F 88% 29.99 in 7.0 mi Calm Calm - N/A   Clear
4:35 AM 73.4 °F - 69.8 °F 88% 29.99 in 7.0 mi Calm Calm - N/A   Clear
4:55 AM 73.4 °F - 69.8 °F 88% 29.99 in 7.0 mi SE 3.5 mph - N/A   Clear
5:15 AM 73.4 °F - 69.8 °F 88% 29.99 in 10.0 mi SE 3.5 mph - N/A   Clear
5:35 AM 73.4 °F - 71.6 °F 94% 29.99 in 10.0 mi SE 4.6 mph - N/A   Clear
5:55 AM 73.4 °F - 69.8 °F 88% 29.99 in 10.0 mi SE 3.5 mph - N/A   Clear
6:15 AM 73.4 °F - 69.8 °F 88% 29.99 in 10.0 mi Calm Calm - N/A   Clear
6:35 AM 73.4 °F - 69.8 °F 88% 30.00 in 7.0 mi Calm Calm - N/A   Clear
6:55 AM 73.4 °F - 69.8 °F 88% 30.01 in 7.0 mi Calm Calm - N/A   Clear
7:15 AM 73.4 °F - 69.8 °F 88% 30.02 in 7.0 mi Calm Calm - N/A   Clear
7:35 AM 73.4 °F - 71.6 °F 94% 30.02 in 7.0 mi Calm Calm - N/A   Clear
7:55 AM 75.2 °F - 71.6 °F 89% 30.02 in 7.0 mi Calm Calm - N/A   Clear
8:15 AM 77.0 °F - 73.4 °F 89% 30.02 in 7.0 mi North 3.5 mph - N/A   Clear
8:35 AM 78.8 °F - 73.4 °F 83% 30.03 in 10.0 mi Calm Calm - N/A   Clear
8:55 AM 80.6 °F 84.6 °F 71.6 °F 74% 30.03 in 10.0 mi Calm Calm - N/A   Clear
9:15 AM 82.4 °F 86.3 °F 69.8 °F 66% 30.04 in 10.0 mi Calm Calm - N/A   Clear
9:35 AM 84.2 °F 88.4 °F 69.8 °F 62% 30.03 in 10.0 mi Calm Calm - N/A   Clear
9:55 AM 86.0 °F 90.4 °F 69.8 °F 58% 30.03 in 10.0 mi Calm Calm - N/A   Clear
10:15 AM 87.8 °F 92.6 °F 69.8 °F 55% 30.04 in 10.0 mi Calm Calm - N/A   Clear
10:35 AM 89.6 °F 96.2 °F 71.6 °F 55% 30.04 in 10.0 mi Calm Calm - N/A   Clear
10:55 AM 89.6 °F 94.7 °F 69.8 °F 52% 30.05 in 10.0 mi NNW 3.5 mph - N/A   Clear
11:15 AM 89.6 °F 94.7 °F 69.8 °F 52% 30.05 in 7.0 mi Calm Calm - N/A   Clear
11:35 AM 91.4 °F 98.4 °F 71.6 °F 52% 30.05 in 10.0 mi North 3.5 mph - N/A   Clear
11:55 AM 91.4 °F 96.8 °F 69.8 °F 49% 30.05 in 10.0 mi NW 3.5 mph - N/A   Clear
12:15 PM 95.0 °F 103.2 °F 71.6 °F 47% 30.04 in 10.0 mi Calm Calm - N/A   Clear
12:35 PM 95.0 °F 101.3 °F 69.8 °F 44% 30.04 in 10.0 mi Calm Calm - N/A   Clear
12:55 PM 95.0 °F 101.3 °F 69.8 °F 44% 30.04 in 10.0 mi Calm Calm - N/A   Clear
1:15 PM 96.8 °F 101.8 °F 68.0 °F 39% 30.03 in 10.0 mi South 3.5 mph - N/A   Clear
1:35 PM 96.8 °F 103.1 °F 69.8 °F 41% 30.03 in 10.0 mi Calm Calm - N/A   Clear
1:55 PM 95.0 °F 103.2 °F 71.6 °F 47% 30.03 in 10.0 mi North 4.6 mph - N/A   Clear
2:15 PM 93.2 °F 100.5 °F 71.6 °F 49% 30.02 in 10.0 mi Calm Calm - N/A   Clear
2:35 PM 95.0 °F 103.2 °F 71.6 °F 47% 30.01 in 7.0 mi Calm Calm - N/A   Clear
2:55 PM 98.6 °F 105.5 °F 69.8 °F 39% 30.00 in 7.0 mi North 4.6 mph - N/A   Clear
3:15 PM 96.8 °F 105.1 °F 71.6 °F 44% 29.99 in 7.0 mi NNE 5.8 mph - N/A   Clear
3:35 PM 96.8 °F 101.8 °F 68.0 °F 39% 29.99 in 7.0 mi North 4.6 mph - N/A   Clear
3:55 PM 98.6 °F 105.5 °F 69.8 °F 39% 29.97 in 10.0 mi North 6.9 mph - N/A   Clear
4:15 PM 98.6 °F 107.7 °F 71.6 °F 42% 29.96 in 10.0 mi North 4.6 mph - N/A   Clear
4:35 PM 98.6 °F 105.5 °F 69.8 °F 39% 29.96 in 10.0 mi Calm Calm - N/A   Clear
4:55 PM 98.6 °F 105.5 °F 69.8 °F 39% 29.96 in 7.0 mi NNE 8.1 mph - N/A   Clear
5:15 PM 98.6 °F 105.5 °F 69.8 °F 39% 29.97 in 10.0 mi NNW 5.8 mph - N/A   Clear
5:35 PM 96.8 °F 105.1 °F 71.6 °F 44% 29.97 in 10.0 mi NNW 5.8 mph - N/A   Clear
5:55 PM 95.0 °F 103.2 °F 71.6 °F 47% 29.96 in 10.0 mi NNW 8.1 mph - N/A   Clear
6:15 PM 95.0 °F 103.2 °F 71.6 °F 47% 29.97 in 10.0 mi NNW 6.9 mph - N/A   Clear
6:35 PM 93.2 °F 100.5 °F 71.6 °F 49% 29.96 in 10.0 mi North 5.8 mph - N/A   Clear
6:55 PM 91.4 °F 100.1 °F 73.4 °F 55% 29.97 in 10.0 mi NNW 5.8 mph - N/A   Clear
7:15 PM 89.6 °F 98.2 °F 73.4 °F 59% 29.97 in 10.0 mi NNW 6.9 mph - N/A   Clear
7:35 PM 89.6 °F 98.2 °F 73.4 °F 59% 29.97 in 10.0 mi NNW 8.1 mph - N/A   Clear
7:55 PM 87.8 °F 95.6 °F 73.4 °F 62% 29.98 in 10.0 mi North 6.9 mph - N/A   Clear
8:15 PM 86.0 °F 93.4 °F 73.4 °F 66% 29.99 in 10.0 mi North 3.5 mph - N/A   Clear
8:35 PM 84.2 °F 89.6 °F 71.6 °F 66% 30.00 in 10.0 mi NNE 4.6 mph - N/A   Clear
8:55 PM 82.4 °F 87.2 °F 71.6 °F 70% 30.01 in 10.0 mi NE 4.6 mph - N/A   Clear
9:15 PM 82.4 °F 87.2 °F 71.6 °F 70% 30.02 in 10.0 mi ESE 4.6 mph - N/A   Mostly Cloudy
9:35 PM 82.4 °F 86.3 °F 69.8 °F 66% 30.04 in 10.0 mi SE 6.9 mph - N/A   Mostly Cloudy
9:55 PM 82.4 °F 86.3 °F 69.8 °F 66% 30.04 in 10.0 mi SE 4.6 mph - N/A   Clear
10:15 PM 80.6 °F 83.9 °F 69.8 °F 70% 30.03 in 10.0 mi ESE 3.5 mph - N/A   Clear
10:35 PM 78.8 °F - 69.8 °F 74% 30.03 in 10.0 mi Calm Calm - N/A   Clear
10:55 PM 78.8 °F - 69.8 °F 74% 30.03 in 10.0 mi Calm Calm - N/A   Clear
11:15 PM 77.0 °F - 69.8 °F 78% 30.03 in 10.0 mi Calm Calm - N/A   Clear
11:35 PM 77.0 °F - 69.8 °F 78% 30.04 in 10.0 mi East 6.9 mph - N/A   Clear
11:55 PM 77.0 °F - 69.8 °F 78% 30.04 in 10.0 mi ESE 5.8 mph - N/A   Clear